User: anonymous   Login
Location: NJAA Observatory
(40.6819°N, 74.8979°W)
Time: 20:37:40
(UTC-04:00)
Language:

Meteor 1-28 Rocket - Orbit

View from above orbital plane
View from above orbital plane
View from above satellite
View from above satellite

Ground track
Ground track

The orbit data is extracted from the following two-line orbital elements,

1 10114U 77057B   14296.65198514  .00003075  00000-0  17290-3 0  3816
2 10114 097.2515 150.9482 0016861 095.0439 265.2718 15.13870635 36996
Epoch (UTC): 23 October 2014 15:38:51
Eccentricity: 0.0016861
inclination: 97.2515°
perigee height: 513 km
apogee height: 536 km
right ascension of ascending node: 150.9482°
argument of perigee: 95.0439°
revolutions per day: 15.13870635
mean anomaly at epoch: 265.2718°
orbit number at epoch: 3699

The dashed part of the orbit path shows where the satellite is in the earth's shadow,  

DLR